Location: Basse Occidentale du Courleau
(48.3833°N, 4.8333°W)
Time: 09:52:31
(UTC+00:00)

USA 215 - Pass Details

Date: 05 July 2020
Orbit: 1102 x 1106 km, 123.0° (Epoch: 31 July)

Event Time Altitude Azimuth Distance (km) Brightness Sun altitude
Rises 20:59:54 0° 57° (ENE) 3,925 6.0 -5.6°
Reaches altitude 10° 21:02:42 10° 67° (ENE) 2,964 5.3 -5.9°
Maximum altitude 21:08:29 33° 130° (SE) 1,764 3.9 -6.6°
Drops below altitude 10° 21:14:15 10° 192° (SSW) 2,952 5.2 -7.2°
Sets 21:17:01 0° 202° (SSW) 3,907 5.9 -7.6°
